Flag for Grenada Weather past 2 weeks in Saint George's, Grenada

Now
88 °F

Passing clouds.


Feels Like: 102 °F
Forecast: 76 / 84 °F
Wind: 13 mph from East

Location: Point Salines Airport

Current Time: Sep 3, 2015 at 9:33:03 AM

Latest Report: Sep 3, 2015 at 9:00 AM


Visibility: N/A

Pressure: 29.95 "Hg

Humidity: 75%

Dew point: 79 °F

Location of Saint George'sLocation

Historic Weather in Saint George's — Graph

°F

Saint George's temperature yesterday

Maximum temperature yesterday: 88 °F (at 9:00 AM)
Minimum temperature yesterday: 81 °F (at 3:00 AM)
Average temperature yesterday: 84 °F

Past Weeks' High & Low Weather Summary

 TemperatureHumidityPressure
High90 °F (Aug 19, 12:00 PM)100% (Aug 26, 3:00 PM)32.52 "Hg (Aug 26, 3:00 PM)
Low77 °F (Aug 26, 3:00 PM)59% (Aug 22, 12:00 PM)28.26 "Hg (Aug 26, 8:00 AM)
Average84 °F83%29.91 "Hg
* Reported Aug 19 8:00 AM — Sep 3 8:00 AM, Saint George's, Weather by CustomWeather, © 2015

Note: Actual official high and low records may vary slightly from our data, if they occured in-between our weather recording intervals... More about our weather records

Advertising

Saint George's weather history for previous 24 hours

 ConditionsComfort  
Time TempWeatherWind HumidityBarometerVisibility
8:00 AM
Thu, Sep 3
84 °FPassing clouds.14 mph79%29.95 "HgN/A
7:00 AM81 °FPassing clouds.9 mph89%29.92 "HgN/A
6:00 AM81 °FPassing clouds.9 mph84%29.92 "HgN/A
5:00 AM81 °FPassing clouds.9 mph84%29.92 "HgN/A
4:00 AM81 °FPassing clouds.12 mph84%29.92 "HgN/A
3:00 AM81 °FPassing clouds.9 mph89%29.92 "HgN/A
2:00 AM81 °FPassing clouds.9 mph89%29.95 "HgN/A
1:00 AM82 °FPassing clouds.9 mph84%29.95 "HgN/A
12:00 AM82 °FPassing clouds.6 mph84%29.95 "HgN/A
11:00 PM
Wed, Sep 2
82 °FPassing clouds.9 mph84%29.95 "HgN/A
10:00 PM82 °FPassing clouds.12 mph84%29.98 "HgN/A
9:00 PM82 °FPassing clouds.10 mph84%29.95 "HgN/A
8:00 PM82 °FPassing clouds.8 mph84%29.95 "HgN/A
7:00 PM82 °FPassing clouds.12 mph84%29.92 "HgN/A
6:00 PM84 °FPassing clouds.13 mph79%29.89 "HgN/A
5:00 PM86 °FPassing clouds.13 mph75%29.89 "HgN/A
4:00 PM88 °FPassing clouds.14 mph70%29.89 "HgN/A
3:00 PM88 °FPassing clouds.17 mph70%29.89 "HgN/A
2:00 PM88 °FPassing clouds.18 mph75%29.92 "HgN/A
1:00 PM88 °FPassing clouds.14 mph75%29.95 "HgN/A
11:00 AM88 °FPassing clouds.13 mph75%29.98 "HgN/A
10:00 AM88 °FPassing clouds.18 mph75%29.98 "HgN/A
9:00 AM88 °FPassing clouds.16 mph75%29.98 "HgN/A
Weather by CustomWeather, © 2015

See weather overviewHow to use our weather pages